[[{"header":{"parameterUnit":"m.s-1","parameterCategory":1,"la1":30.2991,"la2":30.254,"lo1":-89.0895,"lo2":-89.0444,"dy":0.0017,"dx":0.0017,"nx":28,"ny":28,"refTime":"2025-01-17T03:00:00:Z","depth":0,"parameterNumber":2,"parameterNumberName":"U-component_of_WINDS"},"data":[0,0,0,0,0,0,0,0,0,0,0,0,0,0,0,0,0,0,0,0,0,0,0,0,0,0,0,0,0,0,0,0,0,0,0,0,0,0,0,0,0,0,0,0,0,0,0,0,0,0,0,0,0,0,0,0,0,0,4.1467,4.1466,0,4.137,4.1368,4.1367,4.1252,4.1251,4.1249,4.1247,4.1145,4.1144,4.1143,0,0,0,0,0,0,0,0,0,0,0,0,0,4.1557,4.1556,4.1468,4.1466,4.1465,4.137,4.1368,4.1367,4.1253,4.125,4.1248,4.1246,4.1146,4.1144,4.1143,0,0,0,0,0,0,0,0,0,0,0,0,0,4.1494,4.1555,4.1468,4.1397,4.1389,4.137,4.1368,4.1367,4.1253,4.125,4.1248,4.1245,4.1146,4.1145,4.1143,4.1185,0,0,4.1138,4.1137,0,0,0,0,0,0,0,0,4.1498,4.1491,4.1408,4.1401,4.1393,4.132,4.1362,4.1306,4.1254,4.1305,4.1247,4.1244,4.1206,4.1199,4.1186,4.1181,4.1176,4.1138,4.1137,4.1136,4.1136,0,0,0,0,0,0,0,4.1502,4.1495,4.1429,4.1407,4.1398,4.137,4.1358,4.1351,4.1271,4.13,4.1291,4.1282,4.1201,4.1188,4.1183,4.1175,4.1138,4.1136,4.1135,4.1135,4.1202,4.1205,0,0,0,0,0,0,4.1517,4.1499,4.1432,4.1426,4.144,4.137,4.1357,4.1346,4.1271,4.1257,4.1284,4.1277,4.1192,4.1185,4.1179,4.1225,4.1136,4.1135,4.1134,4.12,4.1203,4.1206,0,0,0,0,0,0,4.152,4.1513,4.1436,4.146,4.1448,4.1372,4.136,4.1346,4.1333,4.1259,4.1244,4.1285,4.119,4.1181,4.1186,4.122,4.1134,4.1132,4.1196,4.1201,4.1205,4.1318,0,0,0,0,0,0,4.1523,4.1514,4.1529,4.1461,4.1447,4.1444,4.1363,4.1346,4.1331,4.132,4.1256,4.1243,4.1187,4.1189,4.1184,4.1216,4.1131,4.1193,4.1198,4.1203,4.1311,4.1326,4.1338,0,0,0,0,0,4.1526,4.1564,4.153,4.1523,4.1464,4.1446,4.1438,4.1373,4.1334,4.1348,4.1301,4.1245,4.1218,4.119,4.1184,4.1216,4.119,4.1197,4.1203,4.1305,4.1323,4.1338,0,0,0,0,0,0,4.1636,4.1553,4.1515,4.1532,4.1497,4.1427,4.1443,4.1394,4.1369,4.136,4.1281,4.1268,4.1282,4.1249,4.122,4.1255,4.1196,4.1201,4.1276,4.1292,4.1306,4.1313,4.113,0,0,0,0,0,4.1662,4.1654,4.1582,4.1604,4.1589,4.152,4.1509,4.1463,4.1423,4.1408,4.136,4.1324,4.1308,4.1298,4.1278,4.1306,4.1292,4.1326,4.134,4.1351,4.1356,4.1371,4.1386,4.1227,4.1226,4.1226,0,0,4.1715,4.167,4.1669,4.1625,4.1592,4.1587,4.1507,4.1504,4.1499,4.1406,4.1408,4.1373,4.1328,4.1345,4.135,4.1318,4.1398,4.1359,4.1369,4.1368,4.1379,4.1394,4.1408,4.1231,4.123,4.1229,0,0,4.181,4.1774,4.1789,4.176,4.1712,4.1666,4.1671,4.1609,4.1582,4.1583,4.1514,4.1508,4.148,4.1452,4.1433,4.1523,4.147,4.1518,4.1589,4.1605,4.1617,4.1628,4.1661,4.1674,4.1524,4.1524,4.1525,0,4.1882,4.1871,4.1803,4.1805,4.1788,4.1707,4.1722,4.1696,4.1645,4.1636,4.1602,4.1568,4.1531,4.1542,4.1564,4.1551,4.1554,4.1524,4.1621,4.1631,4.164,4.1671,4.1683,4.1531,4.153,4.1529,4.1529,0,4.1963,4.1956,4.1974,4.1929,4.1914,4.1923,4.1858,4.1851,4.1808,4.1767,4.177,4.1724,4.1695,4.1694,4.165,4.1699,4.1682,4.1636,4.1574,4.1663,4.169,4.1701,4.1539,4.1537,4.1535,4.1534,0,0,4.212,4.204,4.2048,4.2028,4.1972,4.1965,4.1972,4.1945,4.1942,4.191,4.1914,4.1895,4.1853,4.1833,4.1786,4.18,4.1875,4.1752,4.1749,4.1777,4.1929,4.1964,4.1978,4.1841,4.1843,4.1845,4.1933,0,4.2204,4.221,4.2152,4.2174,4.2168,4.2093,4.2099,4.2066,4.2029,4.2019,4.1977,4.1965,4.191,4.1898,4.1908,4.1864,4.1905,4.1857,4.1845,4.1845,4.1858,4.1992,4.2028,4.2113,4.1943,4.1945,4.1946,0,4.2303,4.2279,4.2302,4.2248,4.2243,4.2249,4.2222,4.2213,4.2175,4.2147,4.2127,4.2074,4.2078,4.2021,4.2026,4.1995,4.1987,4.1965,4.1967,4.1963,4.19,4.1992,4.2138,4.2152,4.1962,4.1961,4.1959,0,4.2417,4.239,4.2401,4.2386,4.2323,4.233,4.2304,4.2263,4.2252,4.2228,4.222,4.2197,4.2184,4.2168,4.2111,4.2075,4.2124,4.2061,4.2101,4.2103,4.2113,4.2113,4.2261,4.2109,4.2109,4.2109,4.2108,0,4.2517,4.2533,4.2452,4.2458,4.2476,4.2409,4.2429,4.2395,4.2361,4.236,4.2294,4.2295,4.222,4.2213,4.2169,4.2181,4.2175,4.2153,4.2141,4.2159,4.2162,4.2152,4.2144,4.2112,4.2111,4.2111,4.211,0,4.2646,4.2591,4.2598,4.254,4.2526,4.2541,4.2491,4.2495,4.2456,4.2456,4.2452,4.239,4.2378,4.2321,4.2296,4.2266,4.2294,4.227,4.2307,4.2299,4.2342,4.2339,4.2488,4.2504,4.2343,4.2344,4.2346,0,4.2713,4.2724,4.2668,4.2664,4.2642,4.2635,4.2624,4.256,4.2552,4.2512,4.2522,4.2506,4.2489,4.2475,4.2427,4.2409,4.2384,4.2438,4.238,4.2399,4.2385,4.2385,4.2387,4.245,4.2452,4.2453,4.2455,0,4.2838,4.2812,4.2798,4.2778,4.2767,4.2747,4.2723,4.2723,4.2653,4.2647,4.2636,4.2623,4.26,4.2585,4.2559,4.2533,4.2483,4.2474,4.2482,4.25,4.2521,4.2511,4.234,4.247,4.2468,4.2467,4.2466,4.2466,4.2938,4.2946,4.2909,4.2897,4.2873,4.2853,4.2855,4.2817,4.2807,4.2783,4.2747,4.2741,4.2706,4.2667,4.2645,4.264,4.2611,4.2623,4.2626,4.263,4.2639,4.2523,4.2635,4.2635,4.2634,4.2634,4.2633,0,4.306,4.3033,4.3024,4.2994,4.2986,4.2941,4.2914,4.291,4.2906,4.2878,4.2865,4.2853,4.284,4.2793,4.2775,4.2781,4.2758,4.2778,4.2777,4.2772,4.2666,4.2661,4.2797,4.2797,4.2797,4.2797,4.2797,4.2797,4.3122,4.3134,4.3105,4.3105,4.3078,4.3073,4.3061,4.3043,4.3021,4.3012,4.3001,4.2971,4.2936,4.2916,4.2902,4.2889,4.2886,4.2914,4.2893,4.2795,4.2779,4.2764,4.2759,4.2914,4.2914,4.3,4.3001,4.3001]},{"header":{"parameterUnit":"m.s-1","parameterCategory":1,"la1":30.2991,"la2":30.254,"lo1":-89.0895,"lo2":-89.0444,"dy":0.0017,"dx":0.0017,"nx":28,"ny":28,"refTime":"2025-01-17T03:00:00:Z","depth":0,"parameterNumber":3,"parameterNumberName":"V-component_of_WINDS"},"data":[0,0,0,0,0,0,0,0,0,0,0,0,0,0,0,0,0,0,0,0,0,0,0,0,0,0,0,0,0,0,0,0,0,0,0,0,0,0,0,0,0,0,0,0,0,0,0,0,0,0,0,0,0,0,0,0,0,0,0.4132,0.4132,0,0.4158,0.4158,0.4158,0.4182,0.4182,0.4183,0.4183,0.4208,0.4208,0.4209,0,0,0,0,0,0,0,0,0,0,0,0,0,0.41,0.4101,0.4132,0.4132,0.4133,0.4158,0.4158,0.4159,0.4182,0.4182,0.4183,0.4183,0.4208,0.4208,0.4209,0,0,0,0,0,0,0,0,0,0,0,0,0,0.4119,0.4101,0.4132,0.4147,0.4149,0.4158,0.4158,0.4159,0.4182,0.4182,0.4183,0.4183,0.4208,0.4208,0.4209,0.4204,0,0,0.4211,0.4211,0,0,0,0,0,0,0,0,0.4118,0.412,0.4145,0.4146,0.4148,0.4167,0.4156,0.4174,0.4182,0.4169,0.4183,0.4183,0.4194,0.4196,0.4199,0.4205,0.4206,0.4211,0.4211,0.4211,0.4211,0,0,0,0,0,0,0,0.4116,0.4119,0.4142,0.4145,0.4147,0.4152,0.4155,0.416,0.4179,0.417,0.4172,0.4175,0.4195,0.4199,0.42,0.4206,0.4211,0.4211,0.4211,0.4212,0.4207,0.4206,0,0,0,0,0,0,0.4113,0.4118,0.4141,0.4143,0.4134,0.4152,0.4156,0.4161,0.4179,0.4182,0.4175,0.4176,0.4198,0.4199,0.4201,0.4195,0.4211,0.4212,0.4212,0.4207,0.4207,0.4206,0,0,0,0,0,0,0.4112,0.4115,0.414,0.4131,0.4134,0.4152,0.4158,0.4161,0.4165,0.4182,0.4185,0.4175,0.4198,0.42,0.4203,0.4197,0.4212,0.4213,0.4208,0.4207,0.4207,0.4184,0,0,0,0,0,0,0.4111,0.4115,0.4114,0.4131,0.4135,0.4142,0.4157,0.4161,0.4166,0.4168,0.4184,0.4187,0.4199,0.4202,0.4203,0.4198,0.4213,0.4209,0.4208,0.4207,0.4186,0.4183,0.418,0,0,0,0,0,0.411,0.4107,0.4114,0.4116,0.4134,0.4142,0.4144,0.4158,0.4166,0.4164,0.4175,0.4186,0.4197,0.4202,0.4204,0.4198,0.4209,0.4208,0.4207,0.4187,0.4183,0.4181,0,0,0,0,0,0,0.4088,0.4109,0.4117,0.4119,0.4128,0.4146,0.4145,0.4155,0.4162,0.4164,0.418,0.4184,0.4184,0.4191,0.4196,0.4193,0.4204,0.4204,0.4188,0.4185,0.4183,0.4181,0.4214,0,0,0,0,0,0.4084,0.4089,0.4107,0.4107,0.4111,0.4127,0.4131,0.4141,0.4151,0.4155,0.4166,0.4175,0.418,0.4183,0.4189,0.4187,0.4189,0.4184,0.4181,0.4179,0.4178,0.4175,0.4172,0.4203,0.4203,0.4203,0,0,0.4075,0.4086,0.4089,0.4102,0.4111,0.4115,0.413,0.4134,0.4136,0.4155,0.4158,0.4166,0.4177,0.4176,0.4177,0.4183,0.417,0.4178,0.4176,0.4176,0.4174,0.4171,0.4168,0.4202,0.4202,0.4202,0,0,0.4059,0.407,0.407,0.4078,0.409,0.41,0.41,0.4116,0.4122,0.4125,0.4138,0.4141,0.415,0.4157,0.4162,0.4147,0.4156,0.4148,0.4134,0.4132,0.4129,0.4127,0.412,0.4118,0.4147,0.4147,0.4147,0,0.4046,0.4053,0.4069,0.4071,0.4076,0.4093,0.4092,0.4099,0.4113,0.4115,0.4122,0.4132,0.4141,0.4141,0.4137,0.4141,0.414,0.4146,0.4129,0.4127,0.4125,0.4118,0.4116,0.4146,0.4146,0.4146,0.4146,0,0.4036,0.404,0.4039,0.4051,0.4056,0.4057,0.4071,0.4074,0.4083,0.4092,0.4093,0.4104,0.4112,0.4112,0.4122,0.4113,0.4116,0.4126,0.4137,0.4121,0.4115,0.4113,0.4144,0.4144,0.4145,0.4145,0,0,0.4009,0.4028,0.4027,0.4032,0.4046,0.4049,0.405,0.4058,0.4059,0.4067,0.4067,0.4074,0.4082,0.4087,0.4097,0.4094,0.4079,0.4103,0.4104,0.4097,0.4069,0.4061,0.4058,0.4086,0.4086,0.4086,0.4068,0,0.3995,0.3998,0.4011,0.401,0.4013,0.4028,0.4029,0.4037,0.4045,0.4048,0.4057,0.406,0.4071,0.4074,0.4073,0.4082,0.4074,0.4083,0.4085,0.4085,0.4081,0.4056,0.4048,0.4031,0.4066,0.4065,0.4065,0,0.398,0.3987,0.3986,0.3998,0.4,0.4,0.4007,0.401,0.4018,0.4024,0.4029,0.404,0.404,0.4051,0.405,0.4056,0.4058,0.4062,0.4062,0.4062,0.4074,0.4054,0.4026,0.4023,0.4062,0.4062,0.4062,0,0.3959,0.3968,0.3968,0.3972,0.3986,0.3986,0.3992,0.4001,0.4003,0.4009,0.4011,0.4016,0.4019,0.4022,0.4033,0.4041,0.4031,0.4043,0.4035,0.4034,0.4032,0.4032,0.4002,0.4034,0.4034,0.4034,0.4034,0,0.3942,0.3941,0.3958,0.3958,0.3956,0.397,0.3968,0.3975,0.3982,0.3983,0.3997,0.3997,0.4012,0.4013,0.4022,0.4019,0.4021,0.4024,0.4027,0.4023,0.4022,0.4024,0.4025,0.4034,0.4034,0.4034,0.4034,0,0.3918,0.393,0.3931,0.3944,0.3947,0.3945,0.3956,0.3955,0.3964,0.3964,0.3965,0.3978,0.398,0.3992,0.3997,0.4002,0.3996,0.4001,0.3993,0.3994,0.3985,0.3985,0.3954,0.395,0.3986,0.3985,0.3985,0,0.3907,0.3906,0.3918,0.3919,0.3925,0.3927,0.393,0.3943,0.3945,0.3953,0.3951,0.3955,0.3958,0.396,0.3969,0.3973,0.3977,0.3966,0.3978,0.3973,0.3975,0.3975,0.3974,0.3964,0.3963,0.3963,0.3963,0,0.3884,0.3889,0.3893,0.3898,0.3901,0.3905,0.3911,0.3911,0.3925,0.3926,0.3929,0.3931,0.3935,0.3938,0.3942,0.3947,0.3956,0.3959,0.3957,0.3952,0.3947,0.3948,0.3985,0.3959,0.396,0.396,0.396,0.396,0.3865,0.3864,0.3872,0.3875,0.388,0.3884,0.3884,0.3892,0.3894,0.3899,0.3906,0.3907,0.3913,0.392,0.3924,0.3924,0.393,0.3927,0.3926,0.3925,0.3922,0.3948,0.3925,0.3925,0.3925,0.3925,0.3925,0,0.3842,0.3847,0.385,0.3856,0.3858,0.3867,0.3873,0.3873,0.3874,0.3879,0.3882,0.3883,0.3885,0.3893,0.3896,0.3894,0.3898,0.3894,0.3894,0.3894,0.3918,0.3919,0.389,0.389,0.389,0.389,0.389,0.389,0.383,0.3828,0.3834,0.3834,0.384,0.3841,0.3843,0.3846,0.385,0.3851,0.3852,0.3858,0.3864,0.3867,0.3868,0.387,0.387,0.3864,0.3868,0.389,0.3893,0.3896,0.3897,0.3864,0.3864,0.3844,0.3844,0.3844]}]]